Regional Weather Roundup
Issued by NWS

Home | Current Version | Previous Version | Graphics & Text | Print | Product List | Glossary On
Versions: 1 2 3 4 5 6 7 8 9 10 11 12 13 14 15 16 17 18 19 20 21 22 23 24 25 26 27 28
000
ASUS45 KSLC 010010
RWRUT

UTAH REGIONAL WEATHER ROUNDUP
NATIONAL WEATHER SERVICE SALT LAKE CITY UT
600 PM MDT SUN APR 30 2017

UTZ001>011-023>025-010100-

NORTHERN UTAH

CITY           SKY/WX    TMP DP  RH WIND       PRES   REMARKS
BRIGHAM CITY   CLOUDY    58  27  30 S3        30.08S
HILL AFB       CLOUDY    57  29  34 SE7       30.08F
LOGAN          CLOUDY    58  35  42 W13       30.07S
OGDEN          CLOUDY    60  28  29 VRB5      30.07F
SALT LAKE CITY PTSUNNY   61  29  29 N6        30.06F
TOOELE VALLEY  MOSUNNY   63  32  31 NE3       30.06F
WENDOVER       CLOUDY    66  27  23 VRB5      30.03F
HEBER CITY     CLOUDY    54  25  32 N8        30.09R
WEST JORDAN    CLOUDY    61  39  43 E7        30.08F

$$

UTZ011>015-024>027-010100-

CENTRAL/NORTHEAST UTAH

CITY           SKY/WX    TMP DP  RH WIND       PRES   REMARKS
PROVO AIRPORT  PTSUNNY   59  30  33 NW3       30.08F
MOAB/CANYONLAN CLOUDY    66  17  15 W9        29.97S
DELTA          SUNNY     63  21  20 CALM      30.07F
PRICE          MOSUNNY   58  23  26 NW21G29   30.07R
RICHFIELD      SUNNY     63  23  22 NW1         N/A
ROOSEVELT      CLOUDY    61  25  25 SW12G17   30.02F
VERNAL         CLOUDY    57  21  24 E3        30.02S

$$

UTZ013>016-019>022-027-010100-

SOUTHERN UTAH

CITY           SKY/WX    TMP DP  RH WIND       PRES   REMARKS
BRYCE CANYON   SUNNY     57  19  22 NW12G26   30.14S
CEDAR CITY     SUNNY     65  21  18 E9        30.06F
MILFORD        SUNNY     65  21  18 VRB6      30.05F
ST GEORGE      MOCLDY    77  19  11 W17       29.97F
HANKSVILLE     SUNNY     70  21  16 NW13G23   30.01S
KANAB          SUNNY     70  18  13 SW10G16   30.06F
BLANDING       MOSUNNY   61  15  16 N14G25    30.11R

$$

REGIONAL REPORTS     COLORADO/ARIZONA

CITY           SKY/WX    TMP DP  RH WIND       PRES   REMARKS
CRAIG, CO      CLOUDY    49  27  42 SW21G29   30.02S
GRAND JUNCTION CLOUDY    63  17  17 SW9G20    29.99F
RIFLE, CO      CLOUDY    58  19  22 W6        30.01S
MONTROSE, CO   MOSUNNY   58  17  20 NW13      30.05S
CORTEZ, CO     SUNNY     61  12  14 NW18      30.02R
COLORADO CITY    N/A     72  21  15 W12       30.08F
PAGE, AZ       SUNNY     72  16  12 VRB5      29.97F
GRAND CANYON   SUNNY     61  12  14 NW5G22    30.13F
KINGMAN, AZ    SUNNY     78  19  11 NW9       30.02F
FLAGSTAFF, AZ  SUNNY     62   9  12 W10G18    30.13S

$$

REGIONAL REPORTS    NEVADA/IDAHO/WYOMING

CITY           SKY/WX    TMP DP  RH WIND       PRES   REMARKS
LAS VEGAS, NV  MOSUNNY   84  11   6 NE8       29.92F
ELY, NY        PTSUNNY   65  24  21 NW18G24   30.10F
ELKO, NV       MOSUNNY   65  28  24 W16G25    30.08F
POCATELLO, ID  CLOUDY    57  39  51 SW18      30.02F
BURLEY, ID     MOSUNNY   59  35  40 W18G28    30.03F
FORT BRIDGER,  MOCLDY    48  26  43 W22G30    30.12S
EVANSTON, WY   CLOUDY    44  26  49 W16       30.12S
ROCK SPRINGS,  CLOUDY    51  26  37 W17       30.03R
KEMMERER, WY     N/A     43  30  61 W13       30.11R

$$




USA.gov is the U.S. government's official web portal to all federal, state and local government web resources and services.